Location: Brachstadt
(48.6975°N, 10.6755°E)
Time: 12:21:02
(UTC+00:00)

Envisat - Pass Details

Date: 01 December 2022
Orbit: 763 x 765 km, 98.2° (Epoch: 06 February)

Event Time Altitude Azimuth Distance (km) Brightness Sun altitude
Rises 03:53:37 0° 12° (NNE) 3,246 6.4 -28.0°
Reaches altitude 10° 03:55:57 10° 11° (N) 2,315 5.6 -27.6°
Enters shadow 03:58:46 34° 4° (N) 1,261 4.0 -27.2°
